Погода в Холме

Погода в Холме : погода сейчас, прогноз погоды и архив. Всё, что Вы хотите узнать о погоде в Холме!

Поиск расширенной информации на нашем сайте:

Другие новости

Новости СМИ2

Главная страница сайта

Новости сайта

03.07.2017

Напоминаем, что на нашем специализированном сайте Метеоцентр.Азия вы можете получить высокодетализированные автоматические прогнозы погоды по пунктам России, СНГ и мира в авиационном формате (включающие направление и скорость ветра, видимость, явления погоды, количество и форму облачности, нижнюю и верхнюю границу облачности).


Погода в Холме - сегодня

Время (UTC), дата Ветер
(°,м/с) 
Видим.   Явления Облачность Т
(°С)
Тd
(°С)
f(%) Тe
(°С)
Pmin
(гПа)
dP
(гПа)
Po
(мм)
O2
(г/м3)
Тmin Tmax R s Состояние
почвы
09 08.12.17 150 (ЮВ) 20000 м  {ливн. осадки}  10/0 средняя 
[As op]
-1.1 -2 94 -4  1003.1  -1  746  302           
12 08.12.17 160 (Ю) 4{10}  20000 м  {ливн. осадки}  10/0 средняя 
[As op]
+0.4 -0.8 92 -2  1001.4  -1.6  744  300           
15 08.12.17 170 (Ю) 4000 м  слаб. дождь  10/10 300 м 
[Ns]
+0.8 +0 94 -2  1001.4  -0.1  744  299         
18 08.12.17 170 (Ю) 4000 м  слаб. снег{дождь}  10/10 330 м 
[Ns]
+0.8 +0.2 96 -1  1002  0.6  745  299    +0.9     
21 08.12.17 170 (Ю) 10 км  {снег}  10/10 300 м 
[Ns]
+0.9 +0.2 95 -1  1002.9  0.8  746  299           
00 09.12.17 180 (Ю) 10 км  {снег}  10/10 300 м 
[Ns]
+1 +0.4 96 -1  1004  1.1  746  300           
03 09.12.17 180 (Ю) 10 км    10/10 330 м 
[Ns]
+1.1 +0.6 96 1004.9  747  300  +0.7       
06 09.12.17 170 (Ю) 4000 м  дымка  10/10 240 м 
[Ns]
+1.2 +0.8 97 1005.9  748  300  +0.8    0.8  равномерный
мокрый или
старый снег
100% 
09 09.12.17 170 (Ю) 4000 м  дымка  10/10 720 м 
[Sc]
+1.6 +0.8 94 +1  1007.6  1.7  749  300           
12 09.12.17 170 (Ю) 10 км    10/10 1110 м 
[Sc]
+1.9 +0.7 92 +1  1007.7  -0.1  749  300           
15 09.12.17 130 (ЮВ) 10 км    10/0 средняя 
[Ac As]
+1.2 +0.2 93 +1  1007.9  0.1  749  301           
18 09.12.17 100 (В) 10 км  {ливн. осадки}  9/3 600 м кучево-дожд., средняя 
[Cb cap|Ac trans]
+0.8 +0.1 95 1007.1  -0.8  749  301    +2  0.0     
21 09.12.17 110 (В) 10 км  слаб. ливневой дождь  10/8 420 м кучево-дожд., средняя 
[Cb cap|Ac As]
+1.6 +0.6 93 1006  -1.1  748  299           
00 10.12.17 130 (ЮВ) 10 км  слаб. ливневой дождь  10/10 500 м кучево-дожд. 
[Cb cap]
+1.7 +0.7 93 1004.9  -1  747  299           
03 10.12.17 140 (ЮВ) 10 км  слаб. ливневой снег  10/10 600 м кучево-дожд. 
[Cb cap]
+0.7 -0 95 1004.3  -0.7  747  300  +0.6    0.7     
06 10.12.17 120 (ЮВ) 10 км  слаб. ливневой снег  10/10 540 м кучево-дожд. 
[Cb cap]
+0.4 -0.3 95 1003.5  -0.7  746  300  +0.4    мокрый или
старый снег
50-90% 
09 10.12.17 110 (В) 4000 м  слаб. снег  10/10 400 м 
[Ns]
+0.2 -0.2 97 -1  1003.4  -0.7  746  300           
12 10.12.17 130 (ЮВ) 4000 м  слаб. снег  10/10 330 м 
[Ns]
+0.2 -0.2 97 +1  1002.3  -1.1  745  300           
15 10.12.17 130 (ЮВ) 4000 м  слаб. снег  10/10 360 м 
[Ns]
+0.1 -0.3 97 +1  1002  -0.3  745  300         
18 10.12.17 140 (ЮВ) 4000 м  слаб. снег  10/10 400 м 
[Ns]
-0.1 -0.5 97 +1  1001.9  745  300    +0.4     
21 10.12.17 тихо ()   4000 м  слаб. снег  10/10 330 м 
[Ns]
-0.4 -0.7 98 -0  1002  745  301           
00 11.12.17 140 (ЮВ) 4000 м  слаб. снег  10/10 300 м 
[Ns]
-0.5 -0.8 98 1001.6  -0.4  745  301           
03 11.12.17 140 (ЮВ) 4000 м  слаб. снег  10/10 270 м 
[Ns]
-1.2 -1.6 97 -1  1001.1  -0.5  744  301  -1.2       
06 11.12.17 140 (ЮВ) 4000 м  слаб. снег  10/10 270 м 
[Ns]
-1.6 -2.1 96 -1  1001.5  0.4  744  302  -1.6    равномерный
сухой снег
100% 
09 11.12.17 280 (З) 4000 м  слаб. снег  10/10 240 м 
[Ns]
-1.6 -2.2 96 -1  1003.4  1.8  746  303           
Время (UTC), дата Ветер
(°,м/с) 
Видим.   Явления Облачность Т
(°С)
Тd
(°С)
f(%) Тe
(°С)
Pmin
(гПа)
dP
(гПа)
Po
(мм)
O2
(г/м3)
Тmin Tmax R s Состояние
почвы

Для получения пояснительной информации подведите курсор к названию столбца.

ПОГОДА в Холме - архив

Всё, что Вы хотите узнать о погоде в Холме - удобно и подробно!

Выберите нужную дату (начиная с 1 января 2015* года) и нажмите кнопку "Найти".
Будут отображены архивные сводки погоды по пункту Холм, начиная с указанной даты.


Отображать данные в формате CSV (для использования в таблицах Excel)


Внимание! Наш архив погоды предназначен исключительно для личного некоммерческого использования в познавательных целях. Если Вам необходимы официальные справки о состоянии погоды (для производственных, юридических, коммерческих и т.п. целей), обращайтесь в органы Росгидромета.

*Примечание: данная дата относится к архиву по метеостанциям СССР (Россия, СНГ, Балтия).
Архив по метеостанциям Зарубежной Европы и Азии (кроме Китая) хранится 10 дней, по другим регионам земного шара (Китай, Африка, Америка, Австралия, Океания) - 1 день.

Холм - район местоположения метеостанции


Название, широта, долгота, высота метеостанции:
Холм 57.2°ш. 31.2°д. 71 м над ур. моря [Российская Федерация]

Дополнительная информация

В oтличие oт бoльшинства пoгoдных сайтoв мы публикуем пoдрoбную метеoинфoрмацию в детальнoм прoфессиoнальнoм фoрмате.

Характеристики температуры и влажнoсти вoздуха измеряются на высoте 2 м в тени вдали oт зданий и деревьев.
Скoрoсть ветра измеряется на высoте 10 м (на урoвне рoста челoвека скoрoсть ветра ниже в 1.5-2 раза). Если метеoстанция нахoдится в гoрoде или в лесу, тo скoрoсть ветра занижена на 2-4 м/с пo сравнению с oткрытым местoм. Скoрoсть ветра над акватoриями крупных рек и oзёр, а также на вершинах хoлмoв на 2-5 м/с выше, чем в oбычных услoвиях.
Атмoсфернoе давление в разных тoчках местнoсти мoжет значительнo oтличаться oт давления на метеoстанции, в зависимoсти oт услoвий рельефа (при пoдъёме на 10 м давление пoнижается примернo на 1 мм рт.ст.).